�������l�o���
Date,Time,MP-1(��Sv/h),MP-2(��Sv/h),MP-3(��Sv/h),MP-4(��Sv/h),MP-5(��Sv/h),MP-6(��Sv/h),MP-7(��Sv/h),����,����(m/s),���J
2015/10/02,00:00,0.473,0.274,0.492,0.450,0.446,0.224,0.193,��,12.5,��
2015/10/02,00:10,0.480,0.278,0.492,0.458,0.442,0.222,0.193,��,11.5,��
2015/10/02,00:20,0.473,0.275,0.494,0.453,0.450,0.224,0.193,��,11.7,��
2015/10/02,00:30,0.476,0.276,0.490,0.454,0.444,0.224,0.191,��,9.9,��
2015/10/02,00:40,0.478,0.277,0.494,0.457,0.443,0.221,0.192,��,7.9,��
2015/10/02,00:50,0.474,0.275,0.494,0.450,0.447,0.223,0.192,��쐼,9.4,��
2015/10/02,01:00,0.477,0.277,0.489,0.454,0.441,0.223,0.192,��쐼,11.0,��
2015/10/02,01:10,0.479,0.277,0.494,0.456,0.447,0.222,0.193,��쐼,9.6,��
2015/10/02,01:20,0.473,0.275,0.492,0.451,0.446,0.223,0.192,��,10.2,��
2015/10/02,01:30,0.477,0.276,0.489,0.456,0.441,0.224,0.193,��쐼,11.6,��
2015/10/02,01:40,0.478,0.277,0.496,0.455,0.449,0.223,0.192,��쐼,10.4,��
2015/10/02,01:50,0.474,0.276,0.491,0.451,0.445,0.224,0.192,��쐼,11.4,��
2015/10/02,02:00,0.479,0.280,0.491,0.458,0.443,0.222,0.193,��쐼,10.4,��
2015/10/02,02:10,0.479,0.277,0.497,0.456,0.449,0.224,0.194,��쐼,10.7,��
2015/10/02,02:20,0.473,0.274,0.492,0.450,0.445,0.223,0.191,��쐼,11.5,��
2015/10/02,02:30,0.481,0.278,0.489,0.457,0.442,0.223,0.194,��쐼,9.8,��
2015/10/02,02:40,0.479,0.277,0.499,0.456,0.450,0.224,0.192,��쐼,11.0,��
2015/10/02,02:50,0.474,0.276,0.494,0.450,0.444,0.224,0.192,��쐼,9.9,��
2015/10/02,03:00,0.479,0.278,0.490,0.458,0.441,0.223,0.193,��쐼,8.7,�L
2015/10/02,03:10,0.478,0.277,0.498,0.455,0.448,0.224,0.193,��쐼,8.1,��
2015/10/02,03:20,0.475,0.276,0.495,0.452,0.445,0.222,0.192,��쐼,10.6,�L
2015/10/02,03:30,0.479,0.279,0.491,0.457,0.441,0.223,0.193,��쐼,9.8,��
2015/10/02,03:40,0.479,0.277,0.497,0.458,0.450,0.224,0.194,��쐼,9.7,�L
2015/10/02,03:50,0.477,0.276,0.495,0.452,0.445,0.224,0.193,��쐼,10.9,�L
2015/10/02,04:00,0.478,0.279,0.490,0.459,0.444,0.223,0.194,��쐼,10.3,��
2015/10/02,04:10,0.480,0.277,0.499,0.457,0.449,0.225,0.192,��쐼,9.5,�L
2015/10/02,04:20,0.476,0.277,0.495,0.454,0.446,0.225,0.194,��쐼,7.8,�L
2015/10/02,04:30,0.479,0.281,0.492,0.459,0.444,0.224,0.194,��쐼,7.8,�L
2015/10/02,04:40,0.482,0.279,0.498,0.458,0.448,0.226,0.193,��쐼,8.8,�L
2015/10/02,04:50,0.473,0.275,0.490,0.446,0.440,0.222,0.193,���쐼,6.4,�L
2015/10/02,05:00,0.474,0.278,0.486,0.450,0.442,0.221,0.191,���k��,6.1,�L
2015/10/02,05:10,0.474,0.276,0.493,0.449,0.445,0.225,0.191,��,8.9,�L
2015/10/02,05:20,0.470,0.278,0.489,0.446,0.440,0.222,0.192,���k��,5.6,�L
2015/10/02,05:30,0.478,0.277,0.487,0.454,0.448,0.223,0.191,���k��,5.4,�L
2015/10/02,05:40,0.476,0.275,0.493,0.452,0.446,0.223,0.192,��,4.2,�L
2015/10/02,05:50,0.471,0.278,0.488,0.452,0.444,0.224,0.192,���쐼,3.6,�L
2015/10/02,06:00,0.479,0.276,0.492,0.453,0.448,0.224,0.192,���k��,6.7,�L
2015/10/02,06:10,0.475,0.278,0.495,0.450,0.444,0.223,0.191,��,4.5,��
2015/10/02,06:20,0.477,0.278,0.489,0.455,0.449,0.223,0.190,��,4.7,��
2015/10/02,06:30,0.480,0.276,0.493,0.450,0.447,0.222,0.192,���쐼,3.9,��
2015/10/02,06:40,0.471,0.277,0.488,0.452,0.443,0.221,0.191,��,5.3,��
2015/10/02,06:50,0.480,0.276,0.491,0.454,0.449,0.221,0.190,���k��,7.4,��
2015/10/02,07:00,0.476,0.276,0.491,0.450,0.443,0.222,0.191,��,9.6,��
2015/10/02,07:10,0.474,0.277,0.489,0.454,0.443,0.222,0.190,���k��,11.5,��
2015/10/02,07:20,0.481,0.275,0.495,0.450,0.444,0.221,0.191,���k��,12.2,��
2015/10/02,07:30,0.477,0.278,0.491,0.453,0.443,0.222,0.189,���k��,12.9,��
2015/10/02,07:40,0.473,0.277,0.492,0.452,0.447,0.223,0.190,���k��,13.5,��
2015/10/02,07:50,0.481,0.275,0.495,0.449,0.443,0.222,0.191,���k��,11.7,��
2015/10/02,08:00,0.475,0.277,0.489,0.455,0.441,0.223,0.191,���k��,10.1,��
2015/10/02,08:10,0.477,0.277,0.494,0.451,0.449,0.222,0.191,���k��,11.3,��
2015/10/02,08:20,0.481,0.276,0.493,0.453,0.443,0.222,0.191,���k��,12.9,��
2015/10/02,08:30,0.477,0.279,0.488,0.455,0.446,0.224,0.190,��,12.8,��
2015/10/02,08:40,0.481,0.275,0.498,0.451,0.448,0.223,0.192,���k��,14.2,��
2015/10/02,08:50,0.482,0.277,0.493,0.455,0.442,0.222,0.191,��,14.4,��
2015/10/02,09:00,0.477,0.280,0.492,0.454,0.447,0.225,0.191,���k��,9.3,��
2015/10/02,09:10,0.478,0.278,0.497,0.452,0.446,0.223,0.189,���k��,12.4,��
2015/10/02,09:20,0.482,0.276,0.493,0.448,0.440,0.223,0.191,���k��,10.8,��
2015/10/02,09:30,0.482,0.278,0.496,0.451,0.446,0.223,0.193,���k��,11.7,��
2015/10/02,09:40,0.477,0.279,0.496,0.455,0.448,0.225,0.193,���k��,9.1,��
2015/10/02,09:50,0.476,0.277,0.492,0.453,0.445,0.224,0.192,��,11.0,��
2015/10/02,10:00,0.486,0.278,0.498,0.452,0.442,0.224,0.191,�k��,9.0,��
2015/10/02,10:10,0.483,0.280,0.497,0.451,0.451,0.224,0.191,��,5.9,��
2015/10/02,10:20,0.481,0.278,0.493,0.458,0.449,0.224,0.193,���쐼,4.2,��
2015/10/02,10:30,0.486,0.279,0.499,0.453,0.445,0.224,0.192,�쐼,4.5,��
2015/10/02,10:40,0.482,0.281,0.494,0.456,0.453,0.224,0.192,�k��,1.2,��
2015/10/02,10:50,0.482,0.277,0.496,0.459,0.447,0.224,0.193,���쓌,0.5,��
2015/10/02,11:00,0.487,0.277,0.497,0.455,0.447,0.224,0.193,�k��,0.7,��
2015/10/02,11:10,0.481,0.281,0.492,0.455,0.450,0.224,0.192,�k,5.0,��
2015/10/02,11:20,0.480,0.277,0.495,0.459,0.445,0.224,0.194,�k��,4.4,��
2015/10/02,11:30,0.486,0.277,0.496,0.455,0.443,0.225,0.192,���k��,5.5,��
2015/10/02,11:40,0.482,0.280,0.493,0.451,0.441,0.223,0.194,��,3.0,��
2015/10/02,11:50,0.480,0.279,0.490,0.450,0.450,0.223,0.193,�k��,2.8,��
2015/10/02,12:00,0.476,0.278,0.489,0.451,0.450,0.224,0.193,�k��,6.8,��
2015/10/02,12:10,0.480,0.276,0.489,0.450,0.448,0.224,0.191,�k��,7.0,��
2015/10/02,12:20,0.485,0.278,0.489,0.451,0.445,0.224,0.191,�k��,7.5,��
2015/10/02,12:30,0.482,0.278,0.497,0.451,0.442,0.223,0.192,���k��,6.3,��
2015/10/02,12:40,0.479,0.279,0.496,0.450,0.442,0.223,0.192,�k��,6.2,��
2015/10/02,12:50,0.488,0.277,0.493,0.458,0.450,0.226,0.191,���k��,8.5,��
2015/10/02,13:00,0.486,0.278,0.493,0.458,0.449,0.227,0.193,���k��,5.3,��
2015/10/02,13:10,0.481,0.280,0.491,0.457,0.447,0.225,0.194,�k��,3.2,��
2015/10/02,13:20,0.485,0.279,0.491,0.455,0.444,0.226,0.194,�k��,4.5,��
2015/10/02,13:30,0.486,0.278,0.492,0.454,0.443,0.225,0.192,�k��,5.1,��
2015/10/02,13:40,0.482,0.278,0.496,0.453,0.444,0.225,0.192,�k��,5.6,��
2015/10/02,13:50,0.483,0.282,0.498,0.455,0.445,0.226,0.193,���k��,5.1,��
2015/10/02,14:00,0.488,0.280,0.496,0.461,0.450,0.225,0.193,���k��,3.8,��
2015/10/02,14:10,0.482,0.278,0.494,0.460,0.450,0.225,0.193,���k��,4.3,��
2015/10/02,14:20,0.483,0.277,0.493,0.458,0.446,0.226,0.195,���k��,4.1,��
2015/10/02,14:30,0.491,0.279,0.493,0.461,0.445,0.226,0.194,���k��,9.2,��
2015/10/02,14:40,0.485,0.280,0.501,0.460,0.452,0.226,0.195,���k��,5.2,��
2015/10/02,14:50,0.482,0.280,0.503,0.456,0.452,0.225,0.194,���k��,3.9,��
2015/10/02,15:00,0.488,0.278,0.497,0.462,0.446,0.227,0.193,�k��,5.8,��
2015/10/02,15:10,0.483,0.281,0.504,0.459,0.454,0.225,0.195,�k��,7.9,��
2015/10/02,15:20,0.483,0.280,0.500,0.457,0.453,0.226,0.195,�k��,8.6,��
2015/10/02,15:30,0.491,0.280,0.497,0.463,0.448,0.225,0.194,�k�k��,9.4,��
2015/10/02,15:40,0.483,0.281,0.502,0.458,0.453,0.226,0.196,�k�k��,12.2,��
2015/10/02,15:50,0.486,0.279,0.499,0.460,0.449,0.226,0.194,�k��,9.3,��
2015/10/02,16:00,0.487,0.282,0.502,0.460,0.450,0.226,0.195,�k��,7.5,��
2015/10/02,16:10,0.483,0.278,0.500,0.456,0.452,0.226,0.194,�k��,8.6,��
2015/10/02,16:20,0.487,0.282,0.498,0.461,0.448,0.227,0.195,�k�k��,7.6,��
2015/10/02,16:30,0.485,0.281,0.502,0.455,0.453,0.226,0.195,�k�k��,8.2,��
2015/10/02,16:40,0.488,0.280,0.497,0.460,0.447,0.226,0.194,�k��,7.2,��
2015/10/02,16:50,0.486,0.281,0.502,0.457,0.453,0.227,0.195,�k��,6.0,��
2015/10/02,17:00,0.483,0.280,0.500,0.460,0.449,0.226,0.194,���k��,6.0,��
2015/10/02,17:10,0.489,0.281,0.498,0.457,0.449,0.227,0.195,�k��,6.4,��
2015/10/02,17:20,0.483,0.280,0.501,0.459,0.451,0.225,0.194,�k��,7.8,��
2015/10/02,17:30,0.489,0.281,0.497,0.461,0.449,0.226,0.196,���k��,7.2,��
2015/10/02,17:40,0.487,0.278,0.502,0.457,0.451,0.227,0.195,�k�k��,2.9,��
2015/10/02,17:50,0.487,0.280,0.497,0.462,0.448,0.226,0.196,���k��,5.4,��
2015/10/02,18:00,0.488,0.278,0.501,0.458,0.451,0.227,0.194,�k��,4.1,��
2015/10/02,18:10,0.486,0.280,0.500,0.462,0.447,0.226,0.195,�k��,4.4,��
2015/10/02,18:20,0.488,0.279,0.500,0.456,0.452,0.227,0.195,�k�k��,2.2,��
2015/10/02,18:30,0.486,0.280,0.497,0.461,0.447,0.225,0.195,�k,1.0,��
2015/10/02,18:40,0.487,0.280,0.499,0.459,0.452,0.225,0.195,�k,0.5,��
2015/10/02,18:50,0.483,0.281,0.499,0.462,0.446,0.227,0.195,�k��,0.9,��
2015/10/02,19:00,0.488,0.280,0.500,0.457,0.451,0.225,0.194,�k,1.4,��
2015/10/02,19:10,0.485,0.278,0.500,0.461,0.446,0.227,0.195,�k,0.7,��
2015/10/02,19:20,0.489,0.281,0.500,0.458,0.452,0.225,0.194,-,CALM,��
2015/10/02,19:30,0.483,0.280,0.499,0.461,0.446,0.227,0.194,�쓌,0.6,��
2015/10/02,19:40,0.487,0.279,0.499,0.458,0.451,0.226,0.194,��쓌,0.6,��
2015/10/02,19:50,0.485,0.280,0.503,0.461,0.449,0.227,0.196,��,0.7,��
2015/10/02,20:00,0.487,0.281,0.498,0.458,0.452,0.226,0.196,���쐼,2.0,��
2015/10/02,20:10,0.485,0.280,0.501,0.461,0.449,0.226,0.195,��,3.0,��
2015/10/02,20:20,0.485,0.280,0.498,0.458,0.451,0.226,0.195,��,1.4,��
2015/10/02,20:30,0.485,0.279,0.499,0.459,0.449,0.226,0.195,��,0.8,��
2015/10/02,20:40,0.486,0.280,0.498,0.459,0.449,0.227,0.196,�쐼,0.8,��
2015/10/02,20:50,0.485,0.281,0.499,0.461,0.449,0.225,0.194,��쐼,1.4,��
2015/10/02,21:00,0.483,0.279,0.499,0.459,0.448,0.226,0.195,��쐼,1.0,��
2015/10/02,21:10,0.485,0.282,0.499,0.459,0.450,0.226,0.195,��,0.8,��
2015/10/02,21:20,0.483,0.281,0.501,0.460,0.447,0.226,0.194,��,0.8,��
2015/10/02,21:30,0.486,0.282,0.498,0.458,0.452,0.226,0.196,�쐼,0.7,��
2015/10/02,21:40,0.482,0.280,0.500,0.460,0.446,0.226,0.195,��,0.7,��
2015/10/02,21:50,0.487,0.280,0.498,0.459,0.451,0.226,0.195,��쓌,1.0,��
2015/10/02,22:00,0.484,0.279,0.499,0.459,0.447,0.225,0.196,���쓌,1.0,��
2015/10/02,22:10,0.488,0.279,0.497,0.458,0.451,0.227,0.195,�쓌,2.2,��
2015/10/02,22:20,0.484,0.280,0.501,0.458,0.446,0.225,0.196,��,2.6,��
2015/10/02,22:30,0.487,0.279,0.499,0.459,0.451,0.226,0.196,�쐼,5.0,��
2015/10/02,22:40,0.481,0.280,0.500,0.463,0.447,0.226,0.195,�쐼,7.2,��
2015/10/02,22:50,0.487,0.278,0.499,0.459,0.452,0.226,0.196,��쐼,8.1,��
2015/10/02,23:00,0.483,0.281,0.500,0.462,0.447,0.226,0.196,��쐼,7.1,��
2015/10/02,23:10,0.487,0.280,0.499,0.460,0.453,0.227,0.196,��쐼,6.8,��
2015/10/02,23:20,0.483,0.282,0.501,0.463,0.450,0.226,0.196,��쐼,5.2,��
2015/10/02,23:30,0.489,0.280,0.499,0.458,0.452,0.226,0.195,��쐼,5.2,��
2015/10/02,23:40,0.485,0.280,0.499,0.462,0.448,0.226,0.196,��쐼,4.8,��
2015/10/02,23:50,0.488,0.279,0.498,0.458,0.451,0.225,0.194,��쐼,4.5,��
